GFSNIL_850_spd_003.txt.gz
Wind_Speed
30 35 41 40 39 37 33 26 22 22 23 23 22 28 31 30 29 30 31 31 30 29
37 35 31 31 28 21 17 14 14 16 17 21 26 30 20 28 30 31 33 32 31 32
34 24 19 19 16 14 15 14 15 18 27 28 17 21 27 29 30 31 32 33 33 32
31 23 18 15 13 13 18 13 16 25 15 17 22 26 28 31 32 34 34 33 33 34
23 18 13 12 13 13 11 13 20 14 18 23 26 29 32 34 35 35 35 34 33 34
14 12 12 11 10 13 16 21 17 17 22 26 31 33 34 33 33 33 33 34 34 34
9 6 11 13 12 15 14 16 21 24 28 29 32 32 31 32 33 32 32 33 33 34
11 12 13 13 15 13 15 21 25 26 28 32 29 30 29 28 29 33 37 40 40 41
12 15 18 17 14 13 20 24 25 31 29 30 32 27 28 32 34 36 37 41 44 46
24 19 11 7 9 21 25 29 31 31 33 30 28 29 31 33 39 44 45 45 42 34
4 4 4 14 20 24 27 29 32 30 26 27 29 33 36 36 29 28 29 29 30 32
4 12 15 19 22 24 28 30 26 26 29 33 32 34 34 27 25 28 31 32 35 35
14 19 19 20 23 25 26 25 27 27 26 27 35 34 27 24 27 32 34 35 35 36
18 19 20 23 24 23 24 23 21 23 28 33 33 27 25 24 26 28 31 32 34 34

GFSNIL_850_spd_006.txt.gz
Wind_Speed
32 34 35 33 32 34 36 27 26 23 20 15 16 22 23 28 33 35 21 25 29 32
31 34 34 30 28 23 27 28 23 16 25 23 23 28 29 22 19 20 25 28 30 31
31 32 31 20 15 18 20 18 14 21 19 22 18 11 13 17 21 26 28 30 32 33
30 29 23 15 13 15 15 13 20 15 14 13 13 15 20 23 26 30 33 33 34 36
28 22 17 14 13 13 11 7 10 11 12 14 18 21 24 28 31 32 33 33 33 34
22 17 15 13 13 13 10 11 9 13 16 19 23 27 28 31 31 31 32 32 33 34
16 13 12 12 11 11 7 12 15 18 21 24 27 28 33 31 32 34 32 32 30 32
15 14 12 9 9 10 13 12 16 22 23 25 30 30 31 33 31 32 35 38 40 42
14 14 16 16 20 8 10 14 20 23 27 29 32 31 28 29 31 34 38 44 46 47
12 12 11 6 5 8 14 20 25 26 30 31 27 27 27 33 36 39 40 37 34 32
8 8 7 9 12 19 23 24 28 29 27 28 28 30 30 33 39 36 32 29 29 31
7 11 19 27 26 23 25 27 26 27 28 27 27 30 36 34 29 28 29 31 33 32
19 15 17 20 22 23 23 24 25 25 23 26 34 33 27 23 23 28 29 29 29 28
19 20 21 20 19 21 22 23 23 25 28 30 26 24 21 21 20 23 28 29 30 30

GFSNIL_850_spd_009.txt.gz
Wind_Speed
29 30 32 34 34 34 31 28 23 19 24 23 27 18 15 18 23 26 27 24 15 20
32 33 32 31 31 31 29 24 23 23 22 13 15 19 29 34 31 14 16 19 22 24
39 35 30 29 28 24 19 18 16 13 15 20 23 18 12 11 12 18 21 24 26 29
40 33 31 28 24 18 13 10 12 16 19 10 8 10 14 17 19 22 26 29 30 31
45 31 26 22 16 14 11 17 11 10 8 8 11 14 18 22 24 26 30 29 29 31
36 23 20 19 16 12 11 10 10 13 15 16 17 20 24 26 28 31 31 31 33 33
23 15 16 13 9 8 5 9 13 15 19 23 26 27 28 31 32 34 33 32 31 31
14 10 12 12 13 12 14 14 14 20 23 24 26 28 30 30 28 29 31 33 36 38
10 9 12 16 13 9 14 18 17 21 25 27 29 29 28 28 29 33 37 39 39 41
11 9 11 11 12 14 17 21 21 24 28 30 30 29 29 30 32 35 39 40 38 35
7 8 10 16 23 23 19 22 25 27 27 28 28 27 29 33 37 37 35 32 30 31
19 19 18 18 18 22 23 23 24 26 26 26 29 32 34 31 31 31 30 28 26 27
18 20 21 22 22 21 23 25 24 24 26 29 32 29 26 25 27 28 27 27 27 27
21 21 21 21 22 24 23 23 24 27 29 28 26 25 24 24 21 23 27 27 27 30

GFSNIL_850_spd_012.txt.gz
Wind_Speed
27 31 35 37 37 33 31 32 31 26 19 16 18 18 12 10 11 16 17 16 18 18
34 38 41 41 34 27 27 29 22 13 11 5 7 16 20 25 30 24 22 18 15 15
39 42 42 40 26 22 25 20 9 5 9 17 23 24 24 12 13 15 13 15 18 22
42 43 42 28 18 17 13 6 5 15 18 17 14 10 11 13 13 17 20 21 24 27
42 39 27 18 9 6 6 5 11 10 8 10 15 18 19 20 22 25 26 28 30 30
37 30 18 9 9 9 9 9 9 13 15 15 17 20 21 23 24 27 30 32 33 31
28 24 14 7 9 9 10 18 22 17 18 21 21 21 24 27 30 32 32 31 31 31
20 18 12 12 14 16 22 26 25 22 23 23 26 30 31 30 28 29 31 32 34 34
16 15 11 12 11 12 17 21 26 24 24 26 28 28 26 27 28 30 32 35 37 37
9 11 15 19 20 22 24 23 22 25 27 27 27 26 27 28 32 34 34 33 33 32
18 17 17 19 20 21 22 24 24 24 25 25 26 28 31 31 31 30 30 30 30 28
19 19 21 23 22 22 22 23 24 23 25 28 30 30 29 28 30 30 29 27 23 23
20 22 22 23 23 23 24 23 23 26 27 28 29 29 27 26 30 29 27 24 25 22
23 22 22 22 22 22 22 25 26 27 27 27 28 28 25 26 23 22 25 27 25 23

GFSNIL_850_spd_015.txt.gz
Wind_Speed
25 28 35 38 40 40 37 31 27 25 20 14 10 7 9 11 9 16 16 15 14 13
28 33 38 40 39 35 27 22 19 11 4 6 11 13 15 19 17 18 19 18 16 14
33 37 39 40 35 25 17 11 5 5 8 12 13 13 12 13 13 14 14 15 15 16
38 39 37 33 24 15 7 4 5 4 5 6 10 8 14 15 17 17 17 17 18 20
36 31 28 24 17 4 7 7 6 9 19 24 15 16 17 20 18 18 20 22 25 27
28 25 21 15 9 8 10 11 13 22 26 22 17 15 19 21 23 25 28 30 29 28
22 22 17 12 10 12 14 16 20 25 20 22 23 22 24 26 28 29 30 29 29 29
19 12 14 12 13 15 19 21 21 22 21 20 21 24 27 28 29 29 29 29 30 30
17 18 17 18 17 18 20 21 22 21 22 24 25 24 24 25 27 28 28 27 27 28
15 16 18 19 21 22 22 22 22 22 22 23 23 24 26 27 27 27 26 26 26 24
16 18 20 23 23 22 21 21 22 22 21 22 25 25 25 26 26 24 24 25 23 21
21 22 23 23 23 23 23 23 22 22 24 25 24 25 26 25 23 22 23 21 18 18
21 21 22 22 23 22 22 23 23 24 24 24 25 25 24 22 20 21 20 20 19 20
20 20 21 23 23 23 24 24 24 25 24 23 24 25 23 21 18 19 21 21 21 18

GFSNIL_850_spd_021.txt.gz
Wind_Speed
18 19 20 20 23 25 25 24 21 18 15 16 15 8 10 16 19 17 12 9 7 7
19 19 21 22 24 25 24 23 18 15 16 10 9 13 14 13 17 16 12 11 10 9
19 21 22 22 23 23 21 19 18 17 15 11 11 16 21 18 13 15 15 14 14 14
21 21 19 19 21 19 17 16 15 13 11 14 18 21 23 16 18 15 16 16 17 18
20 19 19 20 17 16 16 15 15 17 19 16 20 16 15 15 14 14 16 17 19 21
19 17 18 19 19 17 17 17 20 20 21 18 16 19 18 17 17 18 20 21 22 23
18 16 16 13 13 14 16 18 20 20 20 19 19 18 18 15 17 19 20 21 22 23
15 15 13 14 15 17 18 19 19 19 19 19 19 20 21 23 23 21 23 23 24 24
15 15 15 16 16 18 19 19 18 18 19 19 19 22 26 30 30 26 23 24 24 24
15 16 16 16 17 17 18 18 19 19 19 19 20 24 28 33 33 26 23 23 24 25
15 16 16 16 17 18 18 19 19 19 19 20 20 25 30 34 32 23 23 23 24 25
18 16 17 17 17 18 18 20 20 20 19 21 22 24 29 30 25 22 24 23 22 23
19 17 15 16 17 17 19 21 22 22 24 23 25 22 26 26 25 25 24 23 22 22
17 15 14 14 16 19 20 22 20 26 26 22 21 23 24 23 22 25 26 25 24 22

GFSNIL_850_spd_024.txt.gz
Wind_Speed
18 15 16 23 27 29 21 25 22 17 17 23 24 23 15 8 15 17 20 17 16 15
16 19 24 26 28 21 23 18 20 24 22 21 23 21 17 20 23 24 20 18 19 19
18 18 23 25 18 20 18 20 20 18 18 18 12 15 22 25 27 26 22 20 19 18
21 20 18 14 16 23 25 22 21 22 23 23 24 27 28 19 16 18 19 19 18 20
18 18 17 20 26 25 17 19 18 21 23 25 23 21 19 19 19 20 18 20 22 24
19 21 23 19 19 17 17 19 21 21 22 22 22 20 21 21 20 18 19 22 24 25
20 22 16 15 16 18 18 20 22 23 22 22 22 22 22 19 20 24 31 32 26 26
22 17 15 19 18 19 18 21 21 22 22 22 22 23 22 25 28 31 36 36 31 24
18 16 16 16 18 17 19 19 20 20 21 21 21 24 27 29 31 33 34 37 30 23
26 16 14 15 15 18 18 19 19 21 21 20 20 23 28 34 33 34 34 29 26 27
22 16 13 14 14 16 17 19 21 20 19 23 28 30 31 36 33 32 31 25 27 27
18 18 18 12 15 15 17 19 19 19 23 29 31 30 26 28 30 30 30 30 26 24
20 23 14 15 11 15 16 17 20 24 29 30 30 25 25 28 29 28 27 31 29 26
25 26 26 18 8 13 17 18 23 27 28 29 23 25 24 25 25 23 29 31 28 24

GFSNIL_850_spd_027.txt.gz
Wind_Speed
19 17 17 21 24 29 28 21 16 19 26 28 24 23 23 28 19 14 20 22 23 21
14 16 21 25 28 26 22 19 20 25 24 24 25 25 28 18 22 26 26 25 20 22
18 22 24 23 22 19 21 27 26 22 25 21 20 22 23 21 21 17 18 19 19 18
25 21 20 22 21 25 32 19 17 18 21 22 24 21 20 20 19 19 19 18 15 16
23 26 24 28 30 27 24 15 16 18 19 22 22 21 20 20 21 23 22 19 19 23
25 27 26 30 28 23 22 18 16 19 22 23 22 22 21 23 24 20 20 23 28 35
27 26 29 30 28 22 20 18 18 19 23 25 23 23 22 21 23 28 31 32 33 33
32 33 29 26 25 21 17 14 18 18 23 23 22 22 24 28 32 34 35 35 34 33
25 24 36 33 19 17 13 15 18 19 20 21 23 26 28 30 33 36 36 34 34 33
29 32 24 23 19 19 17 15 17 18 17 18 23 26 29 33 33 30 27 30 29 29
30 26 26 18 17 19 12 11 16 15 16 21 24 26 30 29 26 28 30 29 28 28
33 32 29 21 27 16 12 11 13 15 19 25 27 29 26 26 29 29 28 28 27 32
36 39 29 24 21 18 6 14 15 19 24 24 29 23 24 25 26 26 27 29 34 27
35 27 24 18 7 7 10 11 17 20 23 27 23 23 25 27 27 28 30 33 29 24

GFSNIL_850_spd_030.txt.gz
Wind_Speed
19 18 18 23 28 28 27 26 24 22 25 22 23 21 20 19 22 22 23 19 17 19
15 20 25 28 28 27 25 22 30 28 18 19 18 20 21 21 19 19 16 13 17 17
23 29 30 31 32 29 29 29 27 22 20 19 19 19 19 21 20 18 16 16 18 19
25 31 32 31 33 31 30 26 25 18 17 18 20 19 17 15 16 18 21 21 19 18
30 29 28 35 34 34 33 28 21 17 20 19 21 22 20 18 18 20 19 17 20 25
23 32 33 31 33 35 26 23 15 20 21 20 20 22 22 21 20 21 25 28 30 32
26 27 28 34 32 26 23 17 14 17 20 19 22 21 20 20 23 26 28 31 34 32
27 30 30 26 26 32 33 20 13 16 17 19 20 20 20 23 27 29 32 31 28 25
26 30 29 30 30 33 24 15 8 16 15 19 17 18 22 26 29 31 29 27 26 26
27 30 34 33 29 31 23 17 9 9 14 17 17 21 24 27 29 27 26 27 27 28
31 33 36 37 23 26 23 21 13 8 13 15 20 23 26 26 25 25 26 27 28 27
31 34 34 29 24 21 17 8 4 12 14 20 23 26 25 26 25 26 28 29 29 27
34 29 25 20 15 8 5 3 9 12 16 21 23 22 24 25 28 29 28 28 25 21
25 22 18 15 13 9 6 8 9 14 19 22 22 22 24 25 26 23 23 22 20 17

GFSNIL_850_spd_033.txt.gz
Wind_Speed
15 16 19 25 27 29 29 29 28 26 26 22 20 19 18 17 17 18 19 19 14 15
20 23 24 27 29 28 30 30 29 28 28 24 21 20 18 18 17 15 14 14 15 18
23 26 26 25 27 28 29 32 32 30 24 20 17 18 20 19 15 15 14 16 18 20
22 20 22 26 27 29 31 33 23 18 19 16 20 22 21 20 19 18 20 20 18 17
17 20 22 24 24 32 35 28 25 30 27 8 16 19 20 20 20 18 20 19 23 25
18 21 26 28 28 25 28 29 32 32 17 13 16 20 19 19 19 21 22 25 28 31
25 26 26 26 28 28 26 26 33 35 21 17 14 18 18 18 20 21 25 29 31 30
26 27 28 28 28 29 31 29 30 22 9 11 14 17 15 17 22 26 31 30 27 26
23 26 30 30 34 35 25 26 18 12 12 12 14 13 18 24 28 29 29 28 27 26
26 29 30 33 35 28 22 19 19 16 14 12 10 19 22 26 27 26 26 28 28 28
28 31 35 33 28 24 20 17 17 10 7 10 16 21 24 24 25 25 26 27 27 25
29 34 30 26 23 18 11 8 5 7 10 13 19 23 23 24 27 27 27 24 20 19
30 25 23 20 18 14 8 6 7 9 12 18 21 20 21 23 26 26 24 19 18 15
24 23 20 16 15 10 5 6 7 12 18 19 18 18 20 23 23 23 21 19 17 15

GFSNIL_850_spd_036.txt.gz
Wind_Speed
11 14 17 19 18 21 23 24 25 27 27 25 22 20 18 17 17 19 20 19 18 17
16 19 18 18 21 21 21 23 26 29 26 24 20 18 16 17 18 18 18 18 18 18
19 17 16 17 19 19 21 28 29 27 26 21 19 19 19 17 20 18 17 17 18 18
18 15 15 18 19 19 22 22 24 25 26 25 29 16 15 17 18 17 16 16 17 17
13 16 18 20 21 21 27 27 24 24 26 29 29 17 16 11 18 18 18 19 22 25
19 20 20 23 26 27 26 30 25 25 27 28 27 16 11 15 19 18 20 24 27 31
19 19 22 27 29 28 31 31 25 24 26 23 14 11 12 15 18 19 25 28 30 30
17 20 26 30 29 32 32 26 20 21 20 14 10 12 14 15 19 26 30 31 30 30
20 26 26 29 34 31 27 23 16 18 18 14 12 11 12 19 24 29 30 31 31 31
24 23 28 32 30 27 27 20 10 13 15 12 9 10 17 22 27 27 27 29 30 29
24 28 31 29 26 23 22 14 11 8 6 7 11 15 22 24 24 25 25 26 24 22
28 31 29 26 24 21 17 9 6 7 9 11 15 20 21 21 22 24 25 23 19 19
29 27 24 22 20 19 14 13 6 9 11 16 20 19 19 20 23 24 24 22 19 17
24 23 22 20 16 14 10 8 7 11 17 19 17 16 17 19 22 22 23 22 21 19

GFSNIL_850_spd_039.txt.gz
Wind_Speed
6 9 10 12 13 15 17 18 21 24 26 25 24 24 23 23 20 17 16 19 19 20
8 10 12 13 14 16 18 21 23 25 23 22 23 26 25 25 27 18 15 19 19 19
11 15 17 16 18 20 21 22 23 26 26 24 24 25 22 28 18 14 14 19 17 17
14 15 16 18 19 20 23 26 26 27 24 23 24 21 25 21 18 12 16 17 17 18
16 19 19 16 20 23 26 24 28 28 23 21 22 21 27 23 15 14 15 18 18 22
20 17 16 18 22 25 27 29 28 25 19 19 22 22 16 13 13 16 18 19 25 29
15 14 16 21 25 27 29 28 25 21 17 20 18 14 10 12 16 18 19 25 29 30
13 14 21 24 27 29 27 25 25 21 14 16 15 14 12 15 15 19 25 28 28 28
13 20 23 26 28 27 25 24 22 13 10 12 13 12 10 13 19 24 26 27 28 28
18 22 24 27 26 25 23 21 18 9 9 9 8 9 14 18 23 23 24 26 26 24
20 23 25 26 23 22 22 17 12 8 6 7 10 14 19 22 22 22 23 23 21 18
22 25 26 24 22 21 18 17 12 10 9 10 14 20 20 20 21 22 22 20 18 16
24 24 25 22 21 20 17 13 11 9 11 13 19 19 18 19 21 22 20 19 17 17
22 21 23 20 18 14 16 14 11 11 13 18 19 17 16 17 20 18 17 19 18 17

GFSNIL_850_spd_042.txt.gz
Wind_Speed
2 4 6 8 11 13 14 15 15 16 19 21 21 21 20 19 18 18 19 20 15 13
8 9 9 13 14 11 12 13 15 18 20 21 21 21 20 19 18 19 18 14 13 14
11 12 13 14 9 9 12 16 18 20 20 21 20 20 19 17 19 19 16 13 15 15
8 11 12 7 9 11 15 17 18 20 21 20 18 17 18 17 19 21 14 15 14 15
10 11 7 8 10 14 16 17 19 20 19 17 17 19 18 19 16 11 13 14 15 17
8 7 8 10 13 15 17 19 19 18 17 17 15 17 15 11 10 11 12 13 16 20
8 9 10 12 15 17 18 19 18 18 17 16 14 12 10 9 10 11 12 15 19 20
10 12 11 14 16 18 18 17 16 15 13 13 9 7 7 8 8 12 15 17 17 17
10 11 13 15 17 17 16 16 15 15 9 8 7 12 9 10 11 15 16 16 17 17
13 12 14 16 16 15 15 15 14 13 11 9 8 9 11 15 16 14 13 15 16 16
11 13 15 15 15 15 15 14 13 12 9 6 8 12 16 19 13 12 13 15 14 16
13 15 14 14 15 14 16 14 12 12 10 9 9 15 19 18 14 13 15 14 14 16
14 14 13 14 16 14 14 12 13 11 9 12 12 18 19 16 13 14 14 14 14 17
14 13 14 15 15 15 14 13 14 13 12 12 14 14 17 16 15 13 14 14 14 14

GFSNIL_850_spd_045.txt.gz
Wind_Speed
6 4 6 7 10 11 12 13 15 17 17 19 20 21 22 22 23 24 21 20 18 19
5 5 8 9 9 10 11 12 15 17 19 19 20 21 21 22 21 21 20 17 20 16
7 9 8 8 8 9 10 12 15 16 17 19 21 20 20 21 19 20 17 18 18 14
10 8 7 8 9 10 11 13 15 17 19 20 20 20 19 20 21 20 19 18 14 15
6 7 9 10 10 10 13 15 16 18 19 19 19 19 21 24 19 16 13 11 12 13
8 10 10 10 11 12 14 16 17 18 18 19 19 18 19 17 14 12 10 11 12 15
10 11 11 11 11 13 15 17 17 17 17 16 20 17 14 12 9 9 10 12 15 18
11 10 10 11 13 14 16 16 16 17 17 16 13 10 10 9 12 11 13 16 16 16
10 10 11 13 14 16 16 16 16 16 16 14 11 18 17 10 9 13 15 15 15 16
10 10 12 14 15 16 16 16 17 17 15 14 13 17 12 11 15 13 12 13 15 15
11 12 13 15 16 16 16 17 18 16 15 15 14 16 15 14 17 10 11 13 14 14
12 13 15 16 16 17 18 20 18 18 14 15 15 17 18 18 15 10 12 12 13 14
13 14 16 16 16 17 17 18 18 18 17 14 15 17 20 19 15 12 12 12 12 16
14 16 16 15 16 18 18 22 21 23 21 14 17 16 20 22 15 11 12 12 11 10

GFSNIL_850_spd_048.txt.gz
Wind_Speed
13 9 10 9 13 15 14 14 16 18 18 18 21 22 23 24 24 24 25 27 24 21
15 14 14 13 14 13 11 11 11 17 20 20 20 21 23 23 22 21 21 23 22 17
12 12 9 8 10 10 13 12 14 15 17 18 20 21 21 21 22 25 24 24 20 20
17 8 9 9 9 11 11 13 13 16 17 19 19 20 20 23 26 28 26 21 20 13
16 5 5 9 12 12 12 13 14 16 18 19 18 18 21 22 25 23 23 13 11 13
3 7 9 12 13 14 13 14 16 19 17 19 18 22 25 24 19 16 13 13 13 14
10 10 9 13 14 14 15 17 17 17 18 19 21 18 18 14 16 13 11 14 14 15
8 11 15 13 12 15 17 17 18 18 17 19 21 17 17 15 15 12 11 13 17 15
12 11 10 11 16 17 15 18 19 17 22 27 25 19 20 19 20 14 16 14 16 16
10 9 10 15 15 17 19 19 17 21 24 27 21 23 20 18 15 16 13 14 16 17
8 11 18 15 18 19 19 18 22 26 27 20 22 20 20 18 17 18 14 14 17 15
13 14 14 16 18 20 18 20 25 26 23 19 18 22 20 19 18 21 16 18 13 14
14 14 15 17 20 20 19 20 24 25 26 23 22 22 20 17 22 22 19 12 13 16
15 15 18 19 20 19 19 22 26 27 26 19 19 18 21 21 23 25 20 18 15 13

GFSNIL_850_spd_051.txt.gz
Wind_Speed
19 19 17 16 15 14 16 15 21 20 24 27 27 24 23 23 24 23 22 23 22 25
23 23 19 19 18 19 16 16 24 23 23 22 23 22 22 23 22 22 25 25 24 25
24 21 18 16 15 16 14 17 19 22 21 20 21 21 21 21 20 23 24 27 30 24
25 22 19 15 13 9 14 20 17 20 21 21 22 21 22 22 24 27 27 27 25 19
17 14 16 4 9 15 18 16 19 20 21 22 22 23 22 23 26 26 24 19 16 14
9 5 5 13 11 13 16 20 21 22 23 21 21 23 25 26 28 22 20 15 13 14
5 8 11 9 12 20 20 22 23 23 20 20 21 23 25 27 21 20 16 15 12 13
9 13 11 13 18 18 19 22 22 22 22 22 24 27 27 26 18 21 21 19 16 17
12 11 13 16 14 19 23 19 22 25 25 24 27 28 32 22 21 20 17 16 16 18
10 7 11 13 16 21 20 23 26 26 24 27 29 33 23 19 19 18 17 17 16 18
3 7 10 16 19 23 23 22 24 25 27 29 29 28 21 19 20 20 19 19 19 21
2 14 15 18 20 21 21 25 26 28 29 29 29 28 24 24 21 22 19 20 19 20
19 11 18 18 18 21 24 26 27 26 28 30 32 27 22 20 19 20 19 21 23 19
14 15 17 21 23 22 24 26 26 28 30 32 25 21 19 19 19 20 20 21 18 18

GFSNIL_850_spd_054.txt.gz
Wind_Speed
24 22 21 20 22 22 18 12 8 6 16 18 24 27 25 24 23 25 25 24 24 24
21 21 19 20 18 17 8 7 11 14 18 22 23 25 25 26 26 26 25 24 25 26
23 22 23 25 25 20 16 15 18 17 17 22 23 24 26 26 26 25 24 26 29 31
25 26 24 19 12 11 8 15 15 22 20 23 25 27 27 25 25 24 25 27 23 19
29 25 24 22 14 15 11 9 17 18 20 25 28 26 25 25 25 26 28 23 21 17
25 22 17 16 12 10 8 9 20 18 24 28 25 24 24 25 26 29 29 22 16 16
21 20 18 7 3 6 9 17 16 24 29 26 25 26 23 25 28 29 24 20 21 22
21 14 12 12 13 10 13 12 24 27 25 23 29 25 25 27 30 26 23 22 20 20
15 16 13 11 10 6 14 25 23 20 23 27 26 24 27 29 28 23 21 20 17 18
15 13 5 3 8 21 21 19 19 24 23 24 25 27 29 29 29 21 20 20 20 19
10 5 4 8 14 17 19 19 23 22 24 27 27 28 28 29 27 23 23 22 23 22
1 16 8 12 14 17 19 19 21 25 26 27 27 27 29 32 24 23 22 22 22 20
16 9 8 13 16 18 20 23 23 25 27 26 26 27 31 23 21 23 20 18 22 22
11 13 15 18 20 21 23 23 23 26 26 26 26 27 28 23 23 23 20 20 20 19

GFSNIL_850_spd_057.txt.gz
Wind_Speed
22 19 19 21 22 26 27 27 23 17 16 13 18 18 18 22 22 23 22 21 20 21
23 25 28 27 25 28 29 27 18 14 12 15 16 17 20 20 21 21 21 20 20 24
27 30 29 29 33 32 27 16 20 17 14 13 14 18 21 23 22 21 21 21 23 25
31 33 32 32 31 30 27 26 16 22 13 9 15 20 23 24 22 22 22 23 26 26
33 34 32 30 28 21 17 17 15 6 8 14 19 21 23 22 21 21 23 27 28 24
32 31 26 24 19 20 15 7 4 9 11 17 20 22 21 22 20 22 25 28 25 20
33 27 24 20 17 10 6 3 7 11 19 23 22 20 23 20 20 25 26 24 21 23
26 23 20 15 12 8 5 7 15 19 24 19 19 22 21 21 22 25 25 25 22 21
19 13 11 12 9 3 7 16 17 24 19 19 21 20 21 22 24 25 26 24 20 20
13 14 11 7 6 16 15 13 22 19 20 20 21 22 22 24 25 26 28 24 22 22
14 13 12 8 23 14 14 19 19 21 20 22 22 23 24 24 26 29 27 23 23 23
9 5 15 21 13 14 18 19 20 21 23 24 24 24 24 24 26 29 26 22 22 22
12 21 10 10 14 17 20 21 23 24 24 25 26 25 25 25 27 28 27 23 22 21
9 11 13 16 19 19 21 23 24 26 26 27 28 28 26 25 28 28 28 26 24 22

GFSNIL_850_spd_063.txt.gz
Wind_Speed
35 35 36 29 28 27 29 28 30 30 28 27 25 22 18 22 19 19 14 14 16 16
33 36 35 32 30 27 28 31 32 30 28 27 22 23 22 17 16 14 14 15 15 15
30 31 34 31 30 29 30 33 33 30 26 26 21 19 17 16 11 13 14 14 14 16
25 28 27 30 32 31 33 32 32 21 25 22 18 11 10 11 14 14 15 15 15 17
21 23 27 30 29 30 28 28 24 22 19 14 11 12 7 13 15 15 16 15 16 19
24 26 28 27 25 20 17 21 16 16 11 9 12 8 11 14 14 17 17 16 18 21
23 23 19 18 12 5 19 18 15 12 14 12 13 13 12 14 17 19 19 19 21 22
14 12 12 15 10 15 12 11 13 7 13 18 19 16 13 17 20 21 22 22 23 24
10 13 15 11 11 12 11 4 6 17 18 16 13 13 15 20 23 24 25 26 26 26
14 13 11 11 9 6 2 9 21 16 13 14 16 18 21 22 26 27 28 29 30 29
13 13 12 8 5 11 13 14 10 12 15 18 20 21 23 24 26 29 31 33 32 32
12 8 3 11 13 10 8 11 14 17 19 20 22 22 23 24 28 31 35 36 36 35
5 8 10 4 5 8 12 14 16 17 19 21 24 25 26 26 30 35 37 38 39 39
4 3 4 6 8 11 14 17 20 23 26 28 29 31 31 31 31 34 37 38 39 40

GFSNIL_850_spd_066.txt.gz
Wind_Speed
22 16 28 32 34 30 29 30 29 30 32 33 32 31 27 20 20 19 16 12 11 10
26 26 32 31 33 29 30 29 32 32 34 32 33 27 24 20 20 15 14 11 11 11
31 24 26 29 30 30 29 29 29 32 34 35 22 27 24 20 14 14 13 11 11 12
28 28 24 27 26 31 29 29 23 28 28 22 24 23 16 12 13 12 12 13 13 14
20 23 21 17 19 26 30 30 32 25 20 21 18 16 10 16 9 13 14 15 15 16
19 19 21 21 23 24 23 3 8 22 22 23 13 18 15 12 13 16 16 16 17 18
17 15 14 14 13 11 9 9 15 18 14 13 11 15 13 14 15 17 18 19 20 20
7 7 8 9 11 12 9 14 14 8 5 12 15 16 18 14 16 18 20 21 22 23
8 9 11 13 14 13 15 11 4 10 13 12 15 13 11 15 19 20 23 25 25 25
12 13 13 13 12 8 3 7 10 10 8 8 10 16 16 19 23 24 25 27 28 29
15 15 14 8 3 3 7 9 4 6 8 10 11 18 19 21 25 24 25 27 29 31
14 10 6 1 6 6 3 4 5 7 9 11 13 19 20 22 25 24 27 28 30 32
9 3 2 3 3 3 4 6 8 11 13 16 19 19 26 27 28 29 29 31 32 33
4 5 3 2 3 4 6 10 13 16 18 20 20 19 23 24 23 23 27 29 33 32

GFSNIL_850_spd_069.txt.gz
Wind_Speed
26 24 24 25 25 26 25 26 27 28 33 31 23 23 22 27 19 18 18 23 18 10
25 25 26 26 27 26 26 29 25 27 29 28 24 26 34 24 20 23 22 19 17 15
24 26 28 27 23 24 23 24 27 28 24 23 30 31 21 19 24 25 18 16 13 14
21 23 23 24 22 21 20 20 23 21 23 31 31 24 21 21 20 14 17 19 13 17
21 24 21 23 22 18 19 21 25 23 26 18 16 20 24 16 16 19 17 10 17 18
24 21 21 20 19 17 15 17 15 8 10 15 21 15 11 15 16 13 11 17 18 19
21 17 16 16 15 13 13 16 10 9 11 14 11 10 12 13 8 11 16 18 19 21
17 14 12 10 11 12 13 10 8 10 11 8 9 13 12 12 16 14 15 18 22 24
12 11 11 11 14 15 11 11 11 9 8 11 11 10 9 10 13 15 18 21 24 26
14 14 14 14 13 12 11 8 8 8 7 3 4 10 14 16 19 21 20 23 25 27
16 15 16 15 12 9 6 5 2 2 3 5 6 14 18 20 21 21 20 22 25 28
15 17 15 12 7 4 3 3 4 3 3 5 6 15 22 23 23 24 25 24 25 27
15 12 5 4 6 6 6 5 4 4 4 8 8 17 23 25 27 27 28 28 27 30
8 9 9 8 7 5 4 4 6 8 9 10 11 11 22 26 24 23 27 31 34 34

GFSNIL_850_spd_075.txt.gz
Wind_Speed
38 38 36 34 35 35 35 33 25 22 24 23 25 30 34 35 38 33 27 33 31 26
41 41 37 37 37 35 32 29 27 24 20 19 23 32 35 35 30 26 29 31 28 24
41 39 40 36 36 38 33 30 29 20 22 20 23 27 33 29 31 30 29 30 23 20
44 42 37 38 36 35 30 30 27 22 18 21 22 21 22 29 28 28 26 21 21 24
42 43 36 30 36 25 31 23 22 18 19 19 19 20 23 25 25 22 20 19 22 21
38 35 33 32 29 33 28 22 19 18 16 16 19 20 19 18 18 20 18 18 18 15
33 30 28 25 24 19 21 21 19 17 14 16 16 16 17 17 18 15 17 14 11 10
29 29 25 22 20 19 19 17 17 17 18 18 16 15 15 16 16 14 12 9 12 14
23 22 19 17 17 17 18 17 17 18 16 16 15 15 15 14 13 13 14 16 17 20
16 17 16 15 16 16 17 17 16 15 15 13 12 11 12 10 9 10 12 15 19 21
16 16 15 16 17 18 16 16 15 14 11 13 11 10 10 11 13 14 16 17 20 22
17 16 18 18 18 18 18 16 12 12 13 10 11 12 13 15 16 17 19 20 21 22
18 19 20 19 20 19 14 15 15 15 15 14 15 16 17 19 20 20 20 18 18 18
21 21 20 19 17 18 19 18 19 19 18 17 17 16 18 20 21 19 18 18 19 20

GFSNIL_850_spd_078.txt.gz
Wind_Speed
38 39 38 36 37 40 40 39 37 34 34 31 33 29 28 31 34 36 39 36 30 33
41 42 41 41 42 42 43 41 38 37 37 32 32 31 30 31 33 37 31 28 29 25
43 44 45 46 46 46 42 40 43 43 38 32 32 26 22 25 29 33 27 27 25 27
48 46 44 50 46 43 43 41 36 24 36 35 28 20 21 22 21 24 26 26 26 23
51 48 46 45 43 38 39 32 22 33 40 31 21 21 22 21 22 23 22 24 20 18
45 43 44 41 41 37 33 28 29 33 33 21 18 20 19 20 20 19 19 19 18 17
37 39 39 38 36 35 33 34 33 28 24 18 18 18 22 21 19 18 18 17 16 14
31 33 35 34 33 25 21 24 26 23 20 21 21 22 21 19 18 19 17 17 16 14
32 34 29 25 20 21 22 21 21 22 22 22 21 21 19 18 18 18 18 18 17 17
26 24 22 20 19 19 19 20 21 20 21 20 19 19 18 18 18 18 18 17 17 20
19 19 21 19 18 18 17 19 20 19 19 19 19 19 19 18 17 16 15 16 18 19
18 20 20 19 18 17 18 19 18 18 18 18 17 17 15 15 15 15 15 17 19 21
17 17 16 16 16 17 17 18 17 17 15 13 13 14 14 15 16 16 17 19 20 19
14 14 15 17 17 19 19 18 19 16 15 15 15 15 16 17 18 19 18 17 17 18

GFSNIL_850_spd_081.txt.gz
Wind_Speed
37 38 39 38 37 38 38 38 36 36 37 38 40 40 37 36 34 30 29 34 37 38
40 42 43 41 41 40 38 38 37 35 35 39 41 40 38 38 34 28 30 32 35 35
42 43 44 43 42 41 41 41 40 40 42 44 43 42 36 38 32 31 30 31 34 24
46 44 42 44 45 44 42 42 34 34 39 44 37 36 32 38 35 28 28 29 27 24
49 48 47 45 45 43 46 45 37 30 38 33 38 39 35 34 26 28 27 22 24 24
49 48 48 46 46 47 48 48 34 37 35 32 31 31 36 25 27 26 24 24 23 23
50 48 49 48 49 49 48 42 39 36 37 32 31 34 27 25 27 24 25 22 22 22
45 40 41 40 39 38 37 34 32 29 30 27 27 27 24 23 26 28 24 22 22 22
40 40 39 37 33 32 27 25 22 21 23 26 25 25 28 28 26 23 22 22 21 20
33 35 33 29 22 20 19 19 21 21 23 26 26 28 24 23 22 21 20 19 19 19
25 22 19 13 15 17 19 20 21 22 26 25 23 22 24 24 21 18 18 18 18 18
11 12 14 16 19 20 21 20 21 20 20 20 22 21 19 17 17 17 16 16 17 19
12 14 18 19 18 17 17 18 18 19 18 18 16 15 15 16 16 16 16 17 18 19
14 15 15 14 15 15 16 18 18 16 15 14 14 15 16 15 15 15 16 17 17 18

GFSNIL_850_spd_084.txt.gz
Wind_Speed
36 39 40 42 45 50 47 46 43 47 44 42 39 37 36 36 37 39 37 39 37 34
35 37 39 41 45 48 46 38 39 42 42 41 38 37 38 40 41 41 39 35 33 32
35 35 36 37 38 40 40 39 40 40 38 37 37 37 38 38 36 30 30 32 30 32
36 37 38 40 41 41 41 42 42 41 39 37 35 41 38 39 34 29 38 33 36 32
37 40 41 42 41 41 42 41 44 45 43 36 28 42 41 33 37 35 33 40 39 31
45 47 44 48 45 43 42 42 42 44 43 30 37 40 40 34 33 34 36 29 31 29
44 44 41 39 39 41 41 42 44 44 43 42 44 39 34 30 32 32 28 26 26 24
44 45 44 42 41 42 44 42 39 36 37 37 33 37 33 34 34 27 24 27 25 26
32 32 35 36 34 35 36 32 28 28 28 31 29 30 31 26 24 25 27 28 26 22
24 26 28 28 28 28 27 23 22 23 24 23 25 29 24 24 25 25 24 20 20 19
20 21 21 21 20 16 15 18 20 20 18 19 20 23 25 25 21 20 19 18 17 15
9 9 7 8 11 15 17 18 21 19 18 17 17 13 13 15 16 15 15 14 14 13
4 6 8 10 14 16 18 16 14 13 12 12 13 13 10 10 11 11 11 12 12 12
6 7 10 12 12 11 11 12 13 13 14 13 12 13 11 10 11 11 10 10 12 14

GFSNIL_850_spd_087.txt.gz
Wind_Speed
42 42 44 44 44 43 45 43 39 38 38 38 39 39 37 37 38 38 37 36 36 37
41 42 44 44 45 43 48 46 44 43 43 42 41 45 44 41 41 38 39 39 36 36
36 40 41 43 45 47 45 47 49 47 45 45 43 39 40 41 41 38 39 39 36 34
32 34 35 37 37 37 38 41 41 41 44 43 40 40 39 42 41 45 37 39 36 34
32 33 34 34 33 34 34 34 35 37 40 40 43 44 44 36 37 37 38 39 37 33
36 37 37 37 36 36 34 37 37 40 42 43 42 40 37 35 42 44 39 33 34 31
37 37 38 39 38 38 38 39 41 42 41 39 39 38 35 37 38 40 35 31 28 31
39 41 41 40 38 37 35 35 35 36 36 35 33 30 27 30 35 37 31 33 32 30
28 32 34 35 35 34 33 32 31 30 28 26 25 24 26 33 33 33 31 33 32 26
19 20 22 23 24 25 24 22 21 23 23 24 25 24 24 27 26 28 29 25 25 24
15 16 16 14 13 14 17 18 18 19 20 21 21 23 23 22 19 18 18 19 20 18
8 8 9 10 11 13 14 14 16 16 17 16 14 12 8 8 11 14 15 13 12 11
9 8 8 8 11 12 11 12 15 12 9 7 8 8 7 6 7 9 9 10 9 10
7 6 6 5 5 8 8 7 8 9 12 11 9 9 9 8 7 8 9 9 8 8